Retour au catalogue

NIMBUS 2 DEB

ActifLEO
NORAD 25526·DEBRIS·🇺🇸 United States

Lancé May 15, 1966 depuis Vandenberg Space Force Base

Loading…

Prochains Passages (prochaines 24 heures)

TLE

FraisSource: Space-Track

Époque: Sep 13, 2026, 07:59 UTC

1 25526U 66040D   26256.33295146  .00002539  00000-0  24441-2 0  9996
2 25526 100.5802  21.6617 0039820 260.5899 125.2142 13.80891794677773

Suivez NIMBUS 2 DEB en temps réel avec AllMySat

Download on the App Store